| time (UTC) | temp C | wind direction | speed KPH | gust KPH | rain 1hr cm | rain 24hr cm | rain mn cm | humidity % | barometer mb |
| 20260507124204 | 20 | 135 | 3.2 | 8.0 | 0.00 | 0.00 | 0.00 | 49 | 1013.7 |
| 20260507123704 | 20 | 194 | 6.4 | 11.3 | 0.00 | 0.00 | 0.00 | 49 | 1013.6 |
| 20260507123204 | 19 | 340 | 8.0 | 11.3 | 0.00 | 0.00 | 0.00 | 50 | 1013.6 |
| 20260507122205 | 19 | 192 | 4.8 | 9.7 | 0.00 | 0.00 | 0.00 | 51 | 1013.7 |
| 20260507121704 | 19 | 180 | 8.0 | 11.3 | 0.00 | 0.00 | 0.00 | 51 | 1013.7 |
| 20260507121204 | 19 | 192 | 8.0 | 11.3 | 0.00 | 0.00 | 0.00 | 51 | 1013.7 |
| 20260507120704 | 19 | 137 | 8.0 | 16.1 | 0.00 | 0.05 | 0.00 | 54 | 1013.8 |
| 20260507120204 | 19 | 197 | 8.0 | 22.5 | 0.00 | 0.05 | 0.00 | 53 | 1013.9 |
| 20260507115704 | 19 | 140 | 3.2 | 11.3 | 0.00 | 0.05 | 0.00 | 52 | 1013.9 |
| 20260507115204 | 19 | 185 | 3.2 | 14.5 | 0.00 | 0.05 | 0.00 | 53 | 1014.0 |
| 20260507114704 | 19 | 190 | 4.8 | 12.9 | 0.00 | 0.05 | 0.00 | 55 | 1014.1 |
| 20260507114204 | 19 | 195 | 4.8 | 9.7 | 0.00 | 0.05 | 0.00 | 56 | 1014.1 |
| 20260507113704 | 19 | 195 | 4.8 | 9.7 | 0.00 | 0.05 | 0.00 | 56 | 1014.2 |
| 20260507113204 | 19 | 195 | 4.8 | 14.5 | 0.00 | 0.05 | 0.00 | 56 | 1014.2 |
| 20260507112204 | 18 | 176 | 8.0 | 11.3 | 0.00 | 0.05 | 0.00 | 58 | 1014.3 |
| 20260507111704 | 18 | 199 | 4.8 | 19.3 | 0.00 | 0.05 | 0.00 | 58 | 1014.4 |
| 20260507111204 | 18 | 172 | 3.2 | 11.3 | 0.00 | 0.05 | 0.00 | 59 | 1014.4 |
| 20260507110704 | 18 | 166 | 3.2 | 8.0 | 0.00 | 0.05 | 0.00 | 60 | 1014.5 |
| 20260507110205 | 18 | 172 | 3.2 | 11.3 | 0.00 | 0.05 | 0.00 | 60 | 1014.5 |
| 20260507105704 | 18 | 88 | 4.8 | 9.7 | 0.00 | 0.05 | 0.00 | 60 | 1014.5 |
| 20260507105203 | 18 | 44 | 4.8 | 9.7 | 0.00 | 0.05 | 0.00 | 61 | 1014.6 |
| 20260507104704 | 18 | 118 | 3.2 | 16.1 | 0.00 | 0.05 | 0.00 | 60 | 1014.6 |
| 20260507104204 | 18 | 181 | 4.8 | 3.2 | 0.00 | 0.05 | 0.00 | 59 | 1014.6 |
| 20260507103704 | 18 | 181 | 4.8 | 3.2 | 0.00 | 0.05 | 0.00 | 59 | 1014.7 |
| 20260507102704 | 18 | 170 | 4.8 | 9.7 | 0.00 | 0.05 | 0.00 | 58 | 1014.7 |
| 20260507102204 | 18 | 164 | 3.2 | 9.7 | 0.00 | 0.05 | 0.00 | 58 | 1014.7 |
| 20260507101704 | 18 | 199 | 3.2 | 11.3 | 0.00 | 0.05 | 0.00 | 58 | 1014.7 |
| 20260507101204 | 18 | 170 | 3.2 | 11.3 | 0.00 | 0.05 | 0.00 | 59 | 1014.7 |
| 20260507100704 | 18 | 171 | 3.2 | 11.3 | 0.00 | 0.05 | 0.00 | 59 | 1014.8 |
| 20260507100204 | 17 | 50 | 3.2 | 4.8 | 0.00 | 0.05 | 0.00 | 62 | 1014.8 |
| 20260507095703 | 17 | 141 | 3.2 | 8.0 | 0.00 | 0.05 | 0.00 | 63 | 1014.8 |
| 20260507095205 | 17 | 202 | 3.2 | 9.7 | 0.00 | 0.05 | 0.00 | 65 | 1014.7 |
| 20260507094204 | 17 | 197 | 0.0 | 9.7 | 0.00 | 0.05 | 0.00 | 65 | 1014.6 |
| 20260507093704 | 17 | 165 | 1.6 | 4.8 | 0.00 | 0.05 | 0.00 | 64 | 1014.7 |
| 20260507093205 | 16 | 189 | 1.6 | 0.0 | 0.00 | 0.05 | 0.00 | 67 | 1014.7 |
| 20260507092705 | 16 | 189 | 1.6 | 0.0 | 0.00 | 0.05 | 0.00 | 67 | 1014.7 |
| 20260507091704 | 16 | 190 | 0.0 | 8.0 | 0.00 | 0.05 | 0.00 | 67 | 1014.7 |
| 20260507091203 | 16 | 170 | 0.0 | 3.2 | 0.00 | 0.05 | 0.00 | 67 | 1014.7 |
| 20260507090704 | 17 | 154 | 1.6 | 0.0 | 0.00 | 0.05 | 0.00 | 63 | 1014.6 |
| 20260507090204 | 17 | 155 | 1.6 | 0.0 | 0.00 | 0.05 | 0.00 | 63 | 1014.5 |
| 20260507085706 | 17 | 155 | 1.6 | 0.0 | 0.00 | 0.05 | 0.00 | 63 | 1014.5 |
| 20260507085204 | 17 | 154 | 1.6 | 3.2 | 0.00 | 0.05 | 0.00 | 63 | 1014.4 |
| 20260507084704 | 17 | 74 | 1.6 | 8.0 | 0.00 | 0.05 | 0.00 | 62 | 1014.4 |
| 20260507084204 | 18 | 168 | 1.6 | 3.2 | 0.00 | 0.05 | 0.00 | 61 | 1014.4 |
| 20260507083704 | 18 | 156 | 1.6 | 8.0 | 0.00 | 0.05 | 0.00 | 61 | 1014.5 |
| 20260507083204 | 17 | 1 | 1.6 | 9.7 | 0.00 | 0.05 | 0.00 | 62 | 1014.5 |
| 20260507082705 | 17 | 192 | 1.6 | 9.7 | 0.00 | 0.05 | 0.00 | 63 | 1014.5 |
| 20260507081204 | 17 | 180 | 1.6 | 12.9 | 0.00 | 0.05 | 0.00 | 63 | 1014.4 |
| 20260507080204 | 17 | 181 | 3.2 | 3.2 | 0.00 | 0.05 | 0.00 | 66 | 1014.4 |
| 20260507075704 | 17 | 179 | 3.2 | 3.2 | 0.00 | 0.05 | 0.00 | 66 | 1014.4 |
| 20260507075204 | 17 | 179 | 3.2 | 3.2 | 0.00 | 0.05 | 0.00 | 66 | 1014.4 |
| 20260507074704 | 17 | 179 | 3.2 | 4.8 | 0.00 | 0.05 | 0.00 | 65 | 1014.4 |
| 20260507074204 | 16 | 180 | 3.2 | 8.0 | 0.00 | 0.05 | 0.00 | 66 | 1014.4 |
| 20260507073705 | 16 | 176 | 3.2 | 11.3 | 0.00 | 0.05 | 0.00 | 66 | 1014.4 |
| 20260507073205 | 16 | 223 | 3.2 | 8.0 | 0.00 | 0.05 | 0.00 | 65 | 1014.4 |
| 20260507072703 | 16 | 186 | 0.0 | 8.0 | 0.00 | 0.05 | 0.00 | 65 | 1014.4 |
| 20260507071704 | 16 | 13 | 1.6 | 8.0 | 0.00 | 0.05 | 0.00 | 66 | 1014.3 |
| 20260507071204 | 16 | 15 | 1.6 | 3.2 | 0.00 | 0.05 | 0.00 | 67 | 1014.3 |
| 20260507070704 | 16 | 46 | 0.0 | 9.7 | 0.00 | 0.05 | 0.00 | 68 | 1014.3 |
| 20260507070204 | 16 | 160 | 0.0 | 8.0 | 0.00 | 0.05 | 0.00 | 69 | 1014.3 |
| 20260507065704 | 15 | 328 | 0.0 | 1.6 | 0.00 | 0.05 | 0.00 | 74 | 1014.3 |
| 20260507065204 | 15 | 338 | 0.0 | 0.0 | 0.00 | 0.05 | 0.00 | 76 | 1014.2 |
| 20260507064704 | 15 | 328 | 0.0 | 3.2 | 0.00 | 0.05 | 0.00 | 76 | 1014.2 |
| 20260507064204 | 15 | 325 | 0.0 | 1.6 | 0.00 | 0.05 | 0.00 | 76 | 1014.2 |
| 20260507063704 | 15 | 34 | 0.0 | 3.2 | 0.00 | 0.05 | 0.00 | 76 | 1014.1 |
| 20260507063204 | 15 | 299 | 0.0 | 3.2 | 0.00 | 0.05 | 0.00 | 77 | 1014.1 |
| 20260507062704 | 15 | 343 | 0.0 | 3.2 | 0.00 | 0.05 | 0.00 | 78 | 1014.1 |
| 20260507062205 | 15 | 46 | 0.0 | 8.0 | 0.00 | 0.05 | 0.00 | 79 | 1014.0 |
| 20260507061204 | 14 | 22 | 0.0 | 1.6 | 0.00 | 0.05 | 0.00 | 82 | 1014.0 |
| 20260507060705 | 14 | 325 | 0.0 | 3.2 | 0.00 | 0.05 | 0.00 | 83 | 1013.9 |
| 20260507060205 | 13 | 72 | 0.0 | 3.2 | 0.00 | 0.05 | 0.00 | 84 | 1013.8 |
| 20260507055705 | 13 | 351 | 0.0 | 3.2 | 0.00 | 0.05 | 0.00 | 83 | 1013.8 |
| 20260507055204 | 13 | 29 | 0.0 | 3.2 | 0.00 | 0.05 | 0.00 | 84 | 1013.7 |
| 20260507054705 | 13 | 322 | 0.0 | 3.2 | 0.00 | 0.05 | 0.00 | 85 | 1013.7 |
| 20260507054204 | 13 | 323 | 0.0 | 3.2 | 0.00 | 0.05 | 0.00 | 85 | 1013.7 |
| 20260507053704 | 13 | 327 | 0.0 | 3.2 | 0.00 | 0.05 | 0.00 | 85 | 1013.6 |
| 20260507053204 | 13 | 316 | 0.0 | 3.2 | 0.00 | 0.08 | 0.00 | 86 | 1013.6 |
| 20260507052704 | 13 | 327 | 0.0 | 3.2 | 0.00 | 0.08 | 0.00 | 86 | 1013.6 |
| 20260507051704 | 13 | 312 | 0.0 | 0.0 | 0.00 | 0.10 | 0.00 | 86 | 1013.3 |
| 20260507051204 | 13 | 310 | 0.0 | 0.0 | 0.00 | 0.13 | 0.00 | 86 | 1013.3 |
| 20260507050205 | 12 | 303 | 0.0 | 0.0 | 0.00 | 0.13 | 0.00 | 87 | 1013.2 |
| 20260507045704 | 12 | 303 | 0.0 | 0.0 | 0.00 | 0.15 | 0.00 | 88 | 1013.2 |
| 20260507045204 | 12 | 303 | 0.0 | 0.0 | 0.00 | 0.15 | 0.00 | 88 | 1013.1 |
| 20260507044705 | 12 | 303 | 0.0 | 0.0 | 0.00 | 0.15 | 0.00 | 89 | 1013.0 |
| 20260507044204 | 12 | 302 | 0.0 | 0.0 | 0.00 | 0.15 | 0.00 | 89 | 1013.0 |
| 20260507043704 | 12 | 301 | 0.0 | 1.6 | 0.00 | 0.15 | 0.00 | 89 | 1013.0 |
| 20260507043204 | 12 | 232 | 0.0 | 0.0 | 0.00 | 0.15 | 0.00 | 89 | 1013.0 |
| 20260507042704 | 12 | 232 | 0.0 | 0.0 | 0.00 | 0.18 | 0.00 | 89 | 1013.0 |
| 20260507042204 | 12 | 231 | 0.0 | 3.2 | 0.00 | 0.18 | 0.00 | 88 | 1012.9 |
| 20260507041704 | 12 | 294 | 0.0 | 1.6 | 0.00 | 0.18 | 0.00 | 88 | 1012.9 |
| 20260507041204 | 12 | 309 | 0.0 | 0.0 | 0.00 | 0.20 | 0.00 | 88 | 1012.9 |
| 20260507040704 | 12 | 309 | 0.0 | 0.0 | 0.00 | 0.20 | 0.00 | 88 | 1012.8 |
| 20260507040204 | 12 | 306 | 0.0 | 3.2 | 0.00 | 0.20 | 0.00 | 88 | 1012.7 |
| 20260507035705 | 12 | 7 | 0.0 | 3.2 | 0.00 | 0.20 | 0.00 | 88 | 1012.7 |
| 20260507035204 | 12 | 18 | 0.0 | 3.2 | 0.00 | 0.20 | 0.00 | 88 | 1012.6 |
| 20260507034704 | 12 | 17 | 1.6 | 1.6 | 0.00 | 0.20 | 0.00 | 87 | 1012.6 |
| 20260507034204 | 12 | 0 | 1.6 | 0.0 | 0.00 | 0.23 | 0.00 | 87 | 1012.6 |
| 20260507033704 | 12 | 4 | 3.2 | 3.2 | 0.00 | 0.23 | 0.00 | 87 | 1012.5 |
| 20260507033205 | 12 | 336 | 3.2 | 8.0 | 0.00 | 0.23 | 0.00 | 87 | 1012.4 |
| 20260507032704 | 12 | 15 | 3.2 | 8.0 | 0.00 | 0.28 | 0.00 | 87 | 1012.4 |
| 20260507032204 | 12 | 0 | 3.2 | 11.3 | 0.00 | 0.28 | 0.00 | 87 | 1012.4 |
| 20260507031704 | 12 | 32 | 3.2 | 11.3 | 0.00 | 0.30 | 0.00 | 87 | 1012.4 |
| 20260507030704 | 12 | 18 | 1.6 | 9.7 | 0.00 | 0.30 | 0.00 | 87 | 1012.5 |
| 20260507030204 | 12 | 36 | 1.6 | 9.7 | 0.00 | 0.30 | 0.00 | 86 | 1012.5 |
| 20260507025705 | 12 | 352 | 3.2 | 8.0 | 0.00 | 0.30 | 0.00 | 86 | 1012.5 |
| 20260507025205 | 12 | 294 | 3.2 | 8.0 | 0.00 | 0.30 | 0.00 | 86 | 1012.6 |
| 20260507024705 | 12 | 15 | 4.8 | 3.2 | 0.00 | 0.30 | 0.00 | 86 | 1012.6 |
| 20260507022706 | 13 | 330 | 1.6 | 8.0 | 0.00 | 0.30 | 0.00 | 84 | 1012.5 |
| 20260507022204 | 13 | 312 | 1.6 | 8.0 | 0.00 | 0.30 | 0.00 | 84 | 1012.5 |
| 20260507021704 | 13 | 303 | 1.6 | 11.3 | 0.00 | 0.30 | 0.00 | 84 | 1012.5 |
| 20260507020704 | 13 | 332 | 8.0 | 3.2 | 0.00 | 0.30 | 0.00 | 84 | 1012.4 |
| 20260507020205 | 13 | 333 | 8.0 | 8.0 | 0.00 | 0.30 | 0.00 | 83 | 1012.4 |
| 20260507014704 | 13 | 326 | 8.0 | 12.9 | 0.00 | 0.30 | 0.00 | 82 | 1012.4 |
| 20260507013704 | 13 | 332 | 8.0 | 12.9 | 0.00 | 0.30 | 0.00 | 82 | 1012.3 |
| 20260507013204 | 13 | 334 | 8.0 | 12.9 | 0.00 | 0.30 | 0.00 | 82 | 1012.3 |
| 20260507012704 | 13 | 331 | 3.2 | 12.9 | 0.00 | 0.30 | 0.00 | 81 | 1012.3 |
| 20260507012204 | 13 | 331 | 3.2 | 12.9 | 0.00 | 0.30 | 0.00 | 81 | 1012.3 |
| 20260507011704 | 13 | 329 | 0.0 | 11.3 | 0.00 | 0.30 | 0.00 | 81 | 1012.3 |
| 20260507010704 | 13 | 314 | 0.0 | 3.2 | 0.00 | 0.30 | 0.00 | 81 | 1012.3 |
| 20260507010204 | 13 | 312 | 0.0 | 3.2 | 0.00 | 0.30 | 0.00 | 81 | 1012.3 |
| 20260507005704 | 13 | 312 | 0.0 | 3.2 | 0.00 | 0.30 | 0.00 | 80 | 1012.3 |
| 20260507005205 | 13 | 311 | 0.0 | 1.6 | 0.00 | 0.30 | 0.00 | 80 | 1012.2 |
| 20260507004705 | 13 | 324 | 0.0 | 3.2 | 0.00 | 0.30 | 0.00 | 80 | 1012.1 |
| 20260507004204 | 13 | 305 | 0.0 | 3.2 | 0.00 | 0.30 | 0.00 | 80 | 1012.1 |
| 20260507003706 | 13 | 321 | 3.2 | 1.6 | 0.00 | 0.33 | 0.00 | 80 | 1012.0 |
| 20260507003205 | 13 | 319 | 3.2 | 3.2 | 0.00 | 0.33 | 0.00 | 80 | 1012.0 |
| 20260507002204 | 13 | 23 | 3.2 | 11.3 | 0.00 | 0.33 | 0.00 | 80 | 1011.9 |
| 20260507001704 | 13 | 32 | 0.0 | 9.7 | 0.00 | 0.33 | 0.00 | 80 | 1011.9 |
| 20260507001205 | 13 | 32 | 0.0 | 9.7 | 0.00 | 0.33 | 0.00 | 80 | 1011.9 |
| 20260507000705 | 13 | 1 | 0.0 | 4.8 | 0.00 | 0.33 | 0.00 | 80 | 1011.9 |
| 20260507000205 | 13 | 6 | 0.0 | 3.2 | 0.00 | 0.33 | 0.00 | 80 | 1011.9 |
| 20260506234704 | 13 | 0 | 0.0 | 11.3 | 0.00 | 0.33 | 0.00 | 79 | 1011.9 |
| 20260506233205 | 14 | 261 | 3.2 | 8.0 | 0.00 | 0.33 | 0.00 | 77 | 1011.7 |
| 20260506232705 | 14 | 0 | 3.2 | 11.3 | 0.00 | 0.33 | 0.00 | 76 | 1011.7 |
| 20260506232204 | 14 | 21 | 3.2 | 8.0 | 0.00 | 0.33 | 0.00 | 76 | 1011.7 |
| 20260506231706 | 14 | 33 | 4.8 | 11.3 | 0.00 | 0.33 | 0.00 | 76 | 1011.7 |
| 20260506231204 | 14 | 330 | 4.8 | 12.9 | 0.00 | 0.33 | 0.00 | 75 | 1011.7 |
| 20260506230704 | 14 | 354 | 6.4 | 11.3 | 0.00 | 0.33 | 0.00 | 75 | 1011.6 |
| 20260506230204 | 14 | 351 | 8.0 | 9.7 | 0.00 | 0.33 | 0.00 | 75 | 1011.6 |
| 20260506225704 | 14 | 343 | 8.0 | 11.3 | 0.00 | 0.33 | 0.00 | 75 | 1011.6 |
| 20260506225204 | 14 | 338 | 8.0 | 12.9 | 0.00 | 0.33 | 0.00 | 75 | 1011.6 |
| 20260506224704 | 14 | 345 | 9.7 | 16.1 | 0.00 | 0.33 | 0.00 | 74 | 1011.6 |
| 20260506224204 | 14 | 340 | 9.7 | 12.9 | 0.00 | 0.33 | 0.00 | 74 | 1011.6 |
| 20260506223706 | 15 | 322 | 9.7 | 14.5 | 0.00 | 0.33 | 0.00 | 74 | 1011.5 |
| 20260506222205 | 15 | 350 | 11.3 | 24.1 | 0.00 | 0.33 | 0.00 | 74 | 1011.5 |
| 20260506221705 | 15 | 333 | 9.7 | 24.1 | 0.00 | 0.33 | 0.00 | 74 | 1011.4 |
| 20260506221204 | 15 | 335 | 9.7 | 22.5 | 0.00 | 0.33 | 0.00 | 74 | 1011.4 |
| 20260506220704 | 15 | 322 | 9.7 | 20.9 | 0.00 | 0.33 | 0.00 | 74 | 1011.5 |
| 20260506215704 | 15 | 332 | 9.7 | 19.3 | 0.00 | 0.33 | 0.33 | 74 | 1011.5 |
| 20260506215204 | 15 | 317 | 9.7 | 20.9 | 0.00 | 0.33 | 0.33 | 74 | 1011.4 |
| 20260506214705 | 15 | 336 | 8.0 | 22.5 | 0.00 | 0.33 | 0.33 | 74 | 1011.4 |
| 20260506214205 | 15 | 8 | 8.0 | 19.3 | 0.00 | 0.33 | 0.33 | 74 | 1011.4 |
| 20260506213204 | 15 | 0 | 8.0 | 12.9 | 0.00 | 0.33 | 0.33 | 74 | 1011.3 |
| 20260506212704 | 15 | 358 | 8.0 | 19.3 | 0.00 | 0.33 | 0.33 | 74 | 1011.3 |
| 20260506212204 | 15 | 329 | 8.0 | 19.3 | 0.00 | 0.33 | 0.33 | 74 | 1011.4 |
| 20260506211705 | 15 | 356 | 9.7 | 16.1 | 0.00 | 0.33 | 0.33 | 74 | 1011.4 |
| 20260506211204 | 15 | 318 | 9.7 | 16.1 | 0.00 | 0.33 | 0.33 | 74 | 1011.4 |
| 20260506210703 | 15 | 320 | 8.0 | 19.3 | 0.00 | 0.33 | 0.33 | 74 | 1011.3 |
| 20260506210203 | 15 | 344 | 8.0 | 16.1 | 0.00 | 0.33 | 0.33 | 74 | 1011.2 |
| 20260506205704 | 15 | 348 | 9.7 | 16.1 | 0.00 | 0.33 | 0.33 | 74 | 1011.2 |
| 20260506205203 | 15 | 356 | 9.7 | 19.3 | 0.00 | 0.33 | 0.33 | 74 | 1011.1 |
| 20260506203703 | 15 | 341 | 9.7 | 25.7 | 0.00 | 0.33 | 0.33 | 74 | 1010.9 |
| 20260506203203 | 15 | 327 | 9.7 | 16.1 | 0.00 | 0.33 | 0.33 | 75 | 1010.9 |
| 20260506202706 | 15 | 21 | 3.2 | 19.3 | 0.00 | 0.33 | 0.33 | 75 | 1010.9 |
| 20260506202203 | 15 | 32 | 3.2 | 25.7 | 0.00 | 0.33 | 0.33 | 75 | 1010.7 |
| 20260506201703 | 15 | 29 | 8.0 | 12.9 | 0.00 | 0.33 | 0.33 | 75 | 1010.6 |
| 20260506201203 | 15 | 44 | 8.0 | 11.3 | 0.00 | 0.33 | 0.33 | 75 | 1010.6 |
| 20260506200703 | 15 | 319 | 9.7 | 14.5 | 0.00 | 0.33 | 0.33 | 75 | 1010.4 |
| 20260506200203 | 15 | 354 | 11.3 | 20.9 | 0.00 | 0.33 | 0.33 | 76 | 1010.3 |
| 20260506195705 | 15 | 33 | 9.7 | 20.9 | 0.00 | 0.33 | 0.33 | 76 | 1010.3 |
| 20260506195203 | 15 | 3 | 9.7 | 22.5 | 0.00 | 0.33 | 0.33 | 77 | 1010.1 |
| 20260506194703 | 15 | 339 | 9.7 | 20.9 | 0.00 | 0.33 | 0.33 | 78 | 1010.0 |
| 20260506194203 | 15 | 349 | 9.7 | 25.7 | 0.00 | 0.33 | 0.33 | 78 | 1010.0 |
| 20260506193705 | 16 | 320 | 11.3 | 25.7 | 0.00 | 0.33 | 0.33 | 79 | 1009.9 |
| 20260506193203 | 16 | 349 | 11.3 | 19.3 | 0.00 | 0.33 | 0.33 | 79 | 1009.8 |
| 20260506192703 | 16 | 344 | 11.3 | 22.5 | 0.00 | 0.33 | 0.33 | 79 | 1009.8 |
| 20260506192203 | 16 | 24 | 11.3 | 24.1 | 0.00 | 0.33 | 0.33 | 78 | 1009.5 |
| 20260506191203 | 16 | 350 | 12.9 | 24.1 | 0.00 | 0.33 | 0.33 | 78 | 1009.3 |
| 20260506190703 | 16 | 351 | 12.9 | 24.1 | 0.00 | 0.33 | 0.33 | 78 | 1009.1 |
| 20260506190203 | 16 | 336 | 12.9 | 20.9 | 0.00 | 0.33 | 0.33 | 77 | 1009.0 |
| 20260506185703 | 16 | 343 | 11.3 | 22.5 | 0.00 | 0.33 | 0.33 | 76 | 1009.0 |
| 20260506185204 | 16 | 346 | 11.3 | 24.1 | 0.00 | 0.33 | 0.33 | 75 | 1008.8 |
| 20260506184703 | 16 | 344 | 9.7 | 24.1 | 0.00 | 0.33 | 0.33 | 74 | 1008.7 |
| 20260506184203 | 16 | 352 | 9.7 | 16.1 | 0.00 | 0.33 | 0.33 | 73 | 1008.7 |
| 20260506183704 | 17 | 351 | 9.7 | 14.5 | 0.00 | 0.33 | 0.33 | 73 | 1008.5 |
| 20260506182703 | 17 | 347 | 9.7 | 16.1 | 0.00 | 0.33 | 0.33 | 73 | 1008.4 |
| 20260506181703 | 17 | 14 | 11.3 | 16.1 | 0.00 | 0.33 | 0.33 | 71 | 1008.0 |
| 20260506181203 | 17 | 343 | 11.3 | 19.3 | 0.00 | 0.33 | 0.33 | 69 | 1008.0 |
| 20260506180705 | 17 | 328 | 8.0 | 20.9 | 0.00 | 0.33 | 0.33 | 67 | 1007.9 |
| 20260506175703 | 18 | 25 | 8.0 | 20.9 | 0.00 | 0.33 | 0.33 | 63 | 1007.8 |
| 20260506175203 | 18 | 351 | 8.0 | 11.3 | 0.00 | 0.33 | 0.33 | 62 | 1007.7 |
| 20260506174703 | 18 | 5 | 9.7 | 16.1 | 0.00 | 0.33 | 0.33 | 61 | 1007.7 |
| 20260506174204 | 18 | 62 | 9.7 | 16.1 | 0.00 | 0.33 | 0.33 | 61 | 1007.7 |
| 20260506173704 | 18 | 21 | 11.3 | 20.9 | 0.00 | 0.33 | 0.33 | 60 | 1007.4 |
| 20260506173204 | 18 | 326 | 11.3 | 19.3 | 0.00 | 0.33 | 0.33 | 60 | 1007.2 |
| 20260506172703 | 18 | 326 | 11.3 | 14.5 | 0.00 | 0.33 | 0.33 | 60 | 1007.2 |
| 20260506172203 | 19 | 332 | 11.3 | 24.1 | 0.00 | 0.33 | 0.33 | 59 | 1007.1 |
| 20260506171703 | 19 | 5 | 8.0 | 20.9 | 0.00 | 0.33 | 0.33 | 57 | 1007.0 |
| 20260506171204 | 20 | 339 | 8.0 | 19.3 | 0.00 | 0.33 | 0.33 | 54 | 1007.0 |
| 20260506170704 | 20 | 335 | 9.7 | 14.5 | 0.00 | 0.33 | 0.33 | 53 | 1006.9 |
| 20260506170204 | 19 | 353 | 9.7 | 12.9 | 0.00 | 0.33 | 0.33 | 53 | 1006.9 |
| 20260506165703 | 19 | 317 | 9.7 | 24.1 | 0.00 | 0.33 | 0.33 | 54 | 1006.9 |
| 20260506164205 | 19 | 24 | 11.3 | 19.3 | 0.00 | 0.33 | 0.33 | 53 | 1007.0 |
| 20260506163703 | 19 | 356 | 9.7 | 22.5 | 0.00 | 0.33 | 0.33 | 52 | 1006.9 |
| 20260506163203 | 19 | 333 | 9.7 | 22.5 | 0.00 | 0.33 | 0.33 | 54 | 1006.9 |
| 20260506162703 | 20 | 337 | 9.7 | 16.1 | 0.00 | 0.33 | 0.33 | 55 | 1006.9 |
| 20260506162204 | 20 | 6 | 11.3 | 16.1 | 0.00 | 0.33 | 0.33 | 55 | 1006.8 |
| 20260506161705 | 20 | 341 | 14.5 | 19.3 | 0.00 | 0.33 | 0.33 | 55 | 1006.8 |
| 20260506160204 | 20 | 325 | 9.7 | 25.7 | 0.00 | 0.33 | 0.33 | 57 | 1006.7 |
| 20260506155203 | 20 | 317 | 12.9 | 20.9 | 0.00 | 0.33 | 0.33 | 58 | 1006.7 |
| 20260506154203 | 20 | 344 | 11.3 | 20.9 | 0.00 | 0.33 | 0.33 | 57 | 1006.7 |
| 20260506153704 | 20 | 332 | 9.7 | 24.1 | 0.00 | 0.33 | 0.33 | 58 | 1006.8 |
| 20260506153203 | 20 | 20 | 9.7 | 20.9 | 0.00 | 0.33 | 0.33 | 57 | 1006.8 |
| 20260506152703 | 20 | 355 | 8.0 | 14.5 | 0.00 | 0.33 | 0.33 | 57 | 1006.8 |
| 20260506152203 | 20 | 19 | 8.0 | 25.7 | 0.00 | 0.33 | 0.33 | 56 | 1006.8 |
| 20260506151704 | 21 | 328 | 9.7 | 24.1 | 0.00 | 0.33 | 0.33 | 56 | 1006.8 |
| 20260506151203 | 21 | 1 | 9.7 | 19.3 | 0.00 | 0.33 | 0.33 | 56 | 1006.8 |
| 20260506150706 | 20 | 343 | 9.7 | 24.1 | 0.00 | 0.33 | 0.33 | 56 | 1006.9 |
| 20260506150204 | 20 | 325 | 9.7 | 24.1 | 0.00 | 0.33 | 0.33 | 56 | 1006.9 |
| 20260506145703 | 20 | 312 | 0.0 | 1.6 | 0.00 | 0.33 | 0.33 | 53 | 1006.9 |
| 20260506145203 | 20 | 312 | 0.0 | 1.6 | 0.00 | 0.33 | 0.33 | 53 | 1006.8 |
| 20260506144703 | 20 | 312 | 0.0 | 3.2 | 0.00 | 0.33 | 0.33 | 53 | 1006.8 |
| 20260506144203 | 20 | 327 | 0.0 | 3.2 | 0.00 | 0.33 | 0.33 | 51 | 1006.8 |
| 20260506143703 | 20 | 341 | 0.0 | 3.2 | 0.00 | 0.33 | 0.33 | 51 | 1006.9 |
| 20260506143203 | 20 | 313 | 0.0 | 3.2 | 0.00 | 0.33 | 0.33 | 53 | 1007.0 |
| 20260506142704 | 20 | 10 | 3.2 | 0.0 | 0.00 | 0.33 | 0.33 | 52 | 1007.0 |
| 20260506141703 | 20 | 73 | 3.2 | 0.0 | 0.00 | 0.33 | 0.33 | 52 | 1007.1 |
| 20260506141203 | 20 | 73 | 3.2 | 8.0 | 0.00 | 0.33 | 0.33 | 52 | 1007.1 |
| 20260506140704 | 20 | 355 | 0.0 | 12.9 | 0.00 | 0.33 | 0.33 | 53 | 1007.2 |
| 20260506140203 | 20 | 6 | 0.0 | 9.7 | 0.00 | 0.33 | 0.33 | 54 | 1007.2 |
| 20260506135703 | 20 | 49 | 0.0 | 3.2 | 0.00 | 0.33 | 0.33 | 55 | 1007.2 |
| 20260506135203 | 20 | 135 | 0.0 | 0.0 | 0.00 | 0.33 | 0.33 | 55 | 1007.3 |
| 20260506134703 | 20 | 30 | 0.0 | 0.0 | 0.00 | 0.33 | 0.33 | 54 | 1007.4 |
| 20260506134203 | 20 | 30 | 0.0 | 0.0 | 0.00 | 0.33 | 0.33 | 54 | 1007.4 |
| 20260506133703 | 20 | 32 | 0.0 | 8.0 | 0.00 | 0.33 | 0.33 | 54 | 1007.4 |
| 20260506133203 | 20 | 337 | 0.0 | 9.7 | 0.00 | 0.33 | 0.33 | 54 | 1007.4 |
| 20260506132703 | 20 | 3 | 3.2 | 3.2 | 0.00 | 0.33 | 0.33 | 54 | 1007.4 |
| 20260506132203 | 20 | 27 | 3.2 | 9.7 | 0.00 | 0.33 | 0.33 | 55 | 1007.5 |
| 20260506131703 | 20 | 55 | 3.2 | 9.7 | 0.00 | 0.33 | 0.33 | 57 | 1007.5 |
| 20260506131203 | 20 | 55 | 3.2 | 9.7 | 0.00 | 0.33 | 0.33 | 57 | 1007.5 |
| 20260506130703 | 20 | 51 | 3.2 | 11.3 | 0.05 | 0.33 | 0.33 | 57 | 1007.5 |
| 20260506130203 | 20 | 30 | 3.2 | 3.2 | 0.05 | 0.33 | 0.33 | 57 | 1007.5 |
| 20260506125203 | 19 | 188 | 0.0 | 9.7 | 0.05 | 0.33 | 0.33 | 57 | 1007.5 |
| 20260506124703 | 19 | 162 | 3.2 | 4.8 | 0.05 | 0.33 | 0.33 | 59 | 1007.5 |